Location: Ajisawe
(8.4333°N, 4.3833°E)
Time: 14:10:39
(UTC+00:00)

Cosmos 1680 Rocket - Pass Details

Date: 07 June 2020
Orbit: 759 x 782 km, 74.1° (Epoch: 07 July)

Event Time Altitude Azimuth Distance (km) Brightness Sun altitude
Exits shadow 03:07:07 42° 4° (N) 1,083 4.4 -30.8°
Drops below altitude 10° 03:10:32 10° 10° (N) 2,304 6.4 -30.1°
Sets 03:12:55 0° 11° (N) 3,233 7.3 -29.6°
